{"data":{"norad_id":64305,"intl_designator":"2025-123Q","name":"STARLINK-34383","alt_names":[],"object_type":"PAYLOAD","status":"ACTIVE","operator":null,"country":"US","launch_date":"2025-06-08","launch_site_code":"AFWTR","launch_vehicle":null,"mission":null,"orbit_class":"UNKNOWN","rcs_meters":null,"size_class":null,"mass_kg":null,"dimensions":null,"purposes":["comms"],"wikipedia_slug":null,"has_3d_model":false,"image_url":null,"decayed_at":null,"tle_current":{"epoch":"2026-09-20T14:21:24.721920Z","epoch_age_seconds":129545,"freshness":"FRESH","line1":"1 64305U 25123Q   26263.59820280  .00016835  00000+0  58854-3 0  9999","line2":"2 64305  69.9996  60.6421 0003957 266.0404  94.0319 15.29589404 70878","mean_motion":15.29589404,"eccentricity":0.0003957,"inclination_deg":69.9996,"raan_deg":60.6421,"arg_perigee_deg":266.0404,"mean_anomaly_deg":94.0319,"bstar":0.00058854,"rev_number":7087,"period_min":94.142911570535,"perigee_km":474.32621240001,"apogee_km":479.75139853245,"semimajor_km":6855.1758054662,"source":"CELESTRAK","updated_at":"2026-09-21T09:00:35.307759Z"}}}